Regional Weather Roundup
Issued by NWS Goodland, KS

Home | Current Version | Previous Version | Text Only | Print | Product List | Glossary Off
Versions: 1 2 3 4 5 6 7 8 9 10 11 12 13 14 15 16 17 18 19 20 21 22 23 24 25 26 27 28 29 30 31 32 33 34 35 36 37 38 39 40 41 42 43 44 45 46 47 48 49 50

000
ASUS43 KGLD 220808
RWRGLD

GOODLAND FORECAST AREA HOURLY WEATHER ROUNDUP
NATIONAL WEATHER SERVICE GOODLAND KS
100 AM MST SUN JAN 22 2017

...OFFICIAL OBSERVATIONS...

CITY           SKY/WX    TMP DP  RH WIND       PRES   REMARKS
GOODLAND KS    CLEAR     28  25  88 NW9       29.65R
HILL CITY KS   CLOUDY    33  30  88 N12       29.62R
IMPERIAL NEB   CLEAR     30  25  81 NW7       29.67R
MCCOOK NEB     CLOUDY    30  27  88 NW10      29.65R
AKRON CO       CLOUDY    31  26  82 W10       29.69R
BURLINGTON CO  CLEAR     30  26  85 NW8       29.68R
LIMON CO       CLOUDY    25  24  96 CALM      29.70R
$$

...UNOFFICIAL OBSERVATIONS...

CITY           SKY/WX    TMP DP  RH WIND       PRES   REMARKS
LENORA KS        N/A     33  32  96 NW8         N/A
NORTON KS      CLEAR     32  27  80 NW12      29.62R
SHARON SPRINGS   N/A     32  28  86 NW10        N/A
TRENTON NEB      N/A     31  32 100 N7          N/A
KIT CARSON CO    N/A     29  26  86 MISG        N/A
YUMA CO        CLOUDY    30  27  86 W9        29.69R
$$



USA.gov is the U.S. government's official web portal to all federal, state and local government web resources and services.